Location: Bretagne
(43.8474°N, 0.4650°W)
Time: 05:35:13
(UTC+00:00)

USA 267 - Visible Passes

Search period start: 19 April 2026 00:00
Search period end: 29 April 2026 00:00
Orbit: 1101 x 1107 km, 123.0° (Epoch: 10 January)

Date Brightness Start Highest point End Pass type
(mag) Time Alt. Az. Time Alt. Az. Time Alt. Az.
19 Apr 5.2 00:11:22 10° ENE 00:12:55 15° E 00:12:55 15° E visible
19 Apr 3.1 01:53:03 10° NE 01:59:38 75° SE 02:00:15 70° S visible
19 Apr 4.0 03:36:15 10° NE 03:42:22 43° NNW 03:47:36 14° W visible
20 Apr 4.0 01:10:31 10° ENE 01:15:43 39° ESE 01:15:43 39° ESE visible
20 Apr 3.4 02:53:21 10° NE 02:59:51 66° NNW 03:03:04 32° WSW visible
20 Apr 4.5 04:36:30 10° NE 04:42:10 33° NNW 04:47:52 10° WNW visible
21 Apr 5.1 00:28:49 10° ENE 00:31:12 17° E 00:31:12 17° E visible
21 Apr 3.2 02:10:32 10° NE 02:17:07 76° SE 02:18:32 57° SSW visible
21 Apr 4.0 03:53:44 10° NE 03:59:51 43° NNW 04:05:53 10° W visible
22 Apr 3.9 01:28:00 10° ENE 01:34:01 41° SE 01:34:01 41° SE visible
22 Apr 3.4 03:10:50 10° NE 03:17:20 66° NNW 03:21:22 25° WSW visible
23 Apr 4.9 00:46:18 10° ENE 00:49:30 19° ESE 00:49:30 19° ESE visible
23 Apr 3.2 02:28:01 10° NE 02:34:36 76° SE 02:36:51 44° SSW visible
23 Apr 4.0 04:11:13 10° NE 04:17:20 43° NNW 04:23:26 10° W visible
24 Apr 3.8 01:45:29 10° ENE 01:51:38 41° SE 01:52:21 40° SE visible
24 Apr 3.5 03:28:19 10° NE 03:34:49 66° NNW 03:39:42 19° WSW visible
25 Apr 4.8 01:03:45 10° ENE 01:07:52 20° ESE 01:07:52 20° ESE visible
25 Apr 3.3 02:45:30 10° NE 02:52:05 76° SE 02:55:12 34° SW visible
25 Apr 4.1 04:28:42 10° NE 04:34:49 43° NNW 04:40:55 10° W visible
26 Apr 3.9 02:02:57 10° ENE 02:09:06 41° SE 02:10:43 36° SSE visible
26 Apr 3.5 03:45:49 10° NE 03:52:18 65° NNW 03:58:04 14° WSW visible
27 Apr 4.8 01:21:14 10° ENE 01:25:54 20° ESE 01:26:15 20° SE visible
27 Apr 3.3 03:02:59 10° NE 03:09:34 77° SE 03:13:36 26° SW visible
28 Apr 4.0 02:20:26 10° ENE 02:26:35 41° SE 02:29:08 30° S visible
28 Apr 3.5 04:03:17 10° NE 04:09:47 65° NNW 04:16:15 10° WSW visible
